This is the latest recevied weather packets stored in our database for station/object KE0PRS. If no packets are shown the sender has not sent any weather packets the latest 10 day(s).
| Time | Temp. | Humidity | Pressure | Rain* | Wind** | Luminosity | Snow |
|---|---|---|---|---|---|---|---|
| 1787664024 | 21.67° C | 87% | 1018.3 hPa | 0 mm | - | 81 W/m² | - |
| 1787663720 | 21.11° C | 88% | 1018.3 hPa | 0 mm | - | 66 W/m² | - |
| 1787663415 | 21.11° C | 88% | 1018.2 hPa | 0 mm | - | 53 W/m² | - |
| 1787663111 | 21.11° C | 88% | 1018.1 hPa | 0 mm | - | 41 W/m² | - |
| 1787662806 | 21.11° C | 88% | 1018.1 hPa | 0 mm | - | 34 W/m² | - |
| 1787662500 | 21.11° C | 89% | 1017.9 hPa | 0 mm | - | 29 W/m² | - |
| 1787662196 | 21.11° C | 90% | 1017.9 hPa | 0 mm | - | 27 W/m² | - |
| 1787661892 | 20.56° C | 90% | 1017.8 hPa | 0 mm | - | 27 W/m² | - |
| 1787661590 | 20.56° C | 90% | 1017.5 hPa | 0 mm | - | 23 W/m² | - |
| 1787661290 | 20.56° C | 90% | 1017.8 hPa | 0 mm | - | 20 W/m² | - |
| 1787660989 | 20.56° C | 89% | 1017.4 hPa | 0 mm | - | 19 W/m² | - |
| 1787660684 | 20.56° C | 89% | 1017.7 hPa | 0 mm | - | 17 W/m² | - |
| 1787660384 | 20.56° C | 90% | 1017.5 hPa | 0 mm | - | 15 W/m² | - |
| 1787660079 | 20.56° C | 90% | 1017.8 hPa | 0 mm | - | 12 W/m² | - |
| 1787659778 | 20.56° C | 90% | 1017.5 hPa | 0 mm | - | 8 W/m² | - |
| 1787659477 | 20.56° C | 90% | 1017.3 hPa | 0 mm | - | 5 W/m² | - |
| 1787659177 | 20.56° C | 90% | 1017.6 hPa | 0 mm | - | 4 W/m² | - |
| 1787658872 | 20.56° C | 89% | 1017.3 hPa | 0 mm | - | 2 W/m² | - |
| 1787658571 | 20.56° C | 89% | 1017.5 hPa | 0 mm | - | 1 W/m² | - |
| 1787658268 | 20.56° C | 89% | 1017.2 hPa | 0 mm | - | 0 W/m² | - |
| 1787657963 | 20.56° C | 89% | 1017.2 hPa | 0 mm | - | 0 W/m² | - |
| 1787657658 | 20.56° C | 89% | 1017.3 hPa | 0 mm | - | 0 W/m² | - |
| 1787657353 | 20.56° C | 88% | 1017.4 hPa | 0 mm | - | 0 W/m² | - |
| 1787657048 | 20.56° C | 88% | 1017.4 hPa | 0 mm | - | 0 W/m² | - |
| 1787656745 | 21.11° C | 88% | 1017.4 hPa | 0 mm | - | 0 W/m² | - |
* Rain latest hour (hover to see other rain measurements)
** Current wind speed in m/s (hover to see current wind gust speed)